Probability
19 13 19 16 16 10 10 10 10 13 16 16 16 10 10 13 13 13 10 10 10 6 6 10 10 10 13 3 3 3 3 3 0 0 0 0 0 0 0 3 3 3 3
16 13 23 26 16 13 10 10 13 13 16 16 13 13 16 13 13 13 13 13 6 6 6 10 10 10 6 6 3 3 3 0 0 0 0 0 0 0 0 0 0 0 3
23 19 19 23 23 16 13 13 10 10 10 13 13 16 6 6 6 6 13 10 10 10 10 10 10 10 6 6 3 0 0 0 0 0 0 0 0 0 0 0 0 0 0
16 19 19 23 23 23 13 13 16 13 16 16 13 10 13 13 6 3 3 6 6 10 10 10 10 10 6 0 0 0 0 0 0 0 0 0 0 0 0 0 0 0 0
10 16 23 26 16 19 19 13 13 13 13 13 10 10 10 6 6 6 6 3 6 6 10 6 6 6 3 0 0 0 0 0 0 0 0 0 0 0 0 0 0 0 0
10 10 10 16 16 16 13 10 10 6 6 3 3 6 3 6 6 6 6 3 6 6 6 6 6 6 3 0 0 0 0 0 0 0 0 0 0 0 0 0 0 0 0
10 10 10 6 13 10 13 10 10 10 3 3 3 6 3 3 6 3 3 3 6 6 6 6 6 3 3 3 0 0 0 0 0 0 0 0 0 0 0 0 0 0 0
10 6 10 6 6 10 13 10 3 3 3 3 3 3 3 3 3 0 0 0 3 3 3 3 6 3 3 3 0 0 0 0 0 0 0 0 0 0 0 0 0 0 0
10 6 6 6 10 10 10 6 6 3 3 3 3 3 6 6 3 3 0 0 3 3 3 0 0 0 3 3 3 3 0 0 0 0 0 0 0 0 0 0 0 0 0
3 3 3 6 10 10 6 3 3 3 3 3 3 6 3 3 3 3 3 3 3 3 3 0 0 0 0 0 3 3 0 0 0 0 0 0 0 0 0 0 0 0 0
3 3 3 6 6 0 3 3 3 3 3 3 3 3 3 3 3 3 3 6 3 0 0 0 0 0 0 0 0 0 0 0 0 0 0 0 0 0 0 0 0 0 0
6 6 6 3 3 3 0 0 0 0 3 3 3 3 3 3 3 3 3 3 3 3 0 0 0 0 0 0 0 0 0 0 0 0 0 0 0 0 0 0 0 0 0
0 3 3 3 3 0 0 0 0 0 0 0 0 0 0 0 0 0 0 0 0 0 0 0 0 0 0 0 0 0 0 0 0 0 0 0 0 0 0 0 0 0 0
0 0 0 0 0 0 0 0 0 0 0 0 0 0 0 0 0 0 0 0 0 0 0 0 0 0 0 0 0 0 0 0 0 0 0 0 0 0 0 0 0 0 0
3 0 0 0 0 0 0 0 0 0 0 0 0 0 0 0 0 0 0 0 0 0 0 0 0 0 0 0 0 0 0 0 0 0 0 0 0 0 0 0 0 0 0
3 0 0 0 0 0 0 0 0 0 0 0 0 0 0 0 0 0 0 0 0 0 0 0 0 0 0 0 0 0 0 0 0 0 0 0 0 0 0 0 0 0 0
0 0 0 0 0 0 0 0 0 0 0 0 0 0 0 0 0 0 0 0 0 0 0 0 0 0 0 0 0 0 0 0 0 0 0 0 0 0 0 0 0 0 0
0 0 0 0 0 0 0 0 0 0 0 0 0 0 0 0 0 0 0 0 0 0 0 0 0 0 0 0 0 0 0 0 0 0 0 0 0 0 0 0 0 0 0
0 0 0 0 0 0 0 0 0 0 0 0 0 0 0 0 0 0 0 0 0 0 0 0 0 0 0 0 0 0 0 0 0 0 0 0 0 0 0 0 0 0 0
0 0 0 0 0 0 0 0 0 0 0 0 0 0 0 0 0 0 0 0 0 0 0 0 0 0 0 0 0 0 0 0 0 0 0 0 0 0 0 0 0 0 0
0 0 0 0 0 0 0 0 0 0 0 0 0 0 0 0 0 0 0 0 0 0 0 0 0 0 0 0 0 0 0 0 0 0 0 0 0 0 0 0 0 0 0
0 0 0 0 0 0 0 0 0 0 0 0 0 0 0 0 0 0 0 0 0 0 0 0 0 0 0 0 0 0 0 0 0 0 0 0 0 0 0 0 0 0 0
0 0 0 0 0 0 0 0 0 0 0 0 0 0 0 0 0 0 0 0 0 0 0 0 0 0 0 0 0 0 0 0 0 0 0 0 0 0 0 0 0 0 0
0 0 0 0 0 0 0 0 0 0 0 0 0 0 0 0 0 0 0 0 0 0 0 0 0 0 0 0 0 0 0 0 0 0 0 0 0 0 0 0 0 0 0
0 0 0 0 0 0 0 0 0 0 0 0 0 0 0 0 0 0 0 0 0 0 0 0 0 0 0 0 0 0 0 0 0 0 0 0 0 0 0 0 0 0 0
0 0 0 0 0 0 0 0 0 0 0 0 0 0 0 0 0 0 0 0 0 0 0 0 0 0 0 0 0 0 0 0 0 0 0 0 0 0 0 0 0 0 0
Height
5846 5844 5842 5840 5837 5835 5833 5831 5829 5828 5827 5825 5823 5821 5818 5816 5814 5812 5810 5808 5806 5803 5800 5798 5796 5794 5791 5788 5785 5783 5780 5779 5777 5775 5774 5773 5772 5771 5770 5769 5768 5768 5768
5841 5839 5837 5835 5832 5830 5828 5826 5824 5822 5821 5819 5817 5814 5812 5810 5808 5806 5804 5802 5799 5797 5794 5791 5789 5787 5784 5781 5778 5775 5773 5771 5769 5767 5766 5766 5765 5763 5762 5761 5760 5760 5760
5838 5835 5833 5831 5828 5825 5823 5821 5818 5816 5814 5812 5810 5807 5805 5803 5802 5800 5797 5795 5793 5790 5787 5784 5782 5779 5776 5773 5770 5767 5765 5763 5761 5759 5758 5758 5758 5756 5755 5753 5753 5752 5752
5834 5831 5829 5826 5823 5820 5818 5815 5812 5810 5808 5806 5803 5801 5799 5797 5795 5793 5790 5788 5785 5782 5780 5777 5774 5772 5769 5766 5763 5760 5758 5755 5754 5752 5750 5749 5749 5748 5748 5747 5745 5745 5745
5830 5827 5824 5821 5818 5815 5813 5810 5807 5805 5802 5800 5797 5795 5792 5790 5788 5785 5783 5780 5778 5775 5772 5770 5767 5765 5762 5759 5756 5753 5751 5748 5747 5745 5743 5742 5740 5739 5738 5739 5738 5737 5737
5826 5823 5820 5816 5813 5810 5807 5805 5802 5800 5797 5794 5791 5788 5786 5783 5781 5778 5775 5773 5771 5768 5765 5763 5760 5758 5755 5752 5750 5747 5744 5742 5740 5738 5736 5735 5733 5731 5730 5729 5729 5729 5730
5822 5819 5816 5813 5809 5806 5803 5800 5797 5794 5791 5788 5785 5782 5779 5776 5774 5771 5769 5767 5764 5761 5758 5756 5753 5751 5748 5746 5744 5742 5739 5736 5733 5731 5729 5727 5725 5723 5721 5720 5720 5721 5721
5819 5815 5812 5809 5805 5802 5798 5795 5792 5789 5785 5782 5779 5776 5772 5769 5767 5764 5762 5760 5758 5755 5752 5749 5747 5744 5742 5740 5738 5736 5733 5730 5727 5724 5722 5720 5717 5716 5714 5713 5712 5712 5713
5815 5812 5808 5805 5801 5797 5794 5790 5787 5784 5780 5777 5773 5770 5767 5764 5761 5759 5756 5754 5751 5749 5746 5743 5741 5738 5736 5734 5732 5730 5727 5724 5720 5717 5714 5712 5710 5708 5707 5706 5705 5705 5705
5811 5807 5804 5800 5796 5793 5790 5786 5782 5778 5775 5772 5768 5765 5762 5759 5756 5753 5751 5748 5745 5743 5740 5737 5735 5732 5730 5728 5726 5723 5720 5717 5713 5710 5707 5705 5703 5701 5699 5698 5697 5697 5696
5807 5803 5799 5795 5792 5789 5785 5781 5777 5774 5770 5767 5763 5760 5757 5754 5751 5748 5745 5743 5740 5737 5735 5732 5729 5727 5725 5723 5720 5717 5714 5710 5707 5703 5701 5698 5696 5694 5693 5691 5690 5689 5688
5803 5799 5795 5791 5788 5784 5780 5776 5772 5769 5765 5762 5758 5755 5752 5750 5747 5743 5741 5738 5735 5732 5729 5727 5724 5722 5720 5717 5714 5711 5708 5704 5701 5697 5694 5692 5689 5688 5686 5684 5683 5682 5681
5799 5795 5791 5787 5783 5779 5776 5772 5768 5765 5762 5758 5754 5752 5749 5746 5742 5739 5736 5734 5731 5727 5724 5722 5719 5716 5714 5711 5708 5705 5701 5698 5694 5691 5688 5686 5683 5681 5679 5677 5676 5674 5673
5795 5791 5787 5784 5780 5776 5772 5768 5765 5761 5758 5754 5751 5748 5745 5742 5739 5735 5732 5729 5726 5722 5719 5716 5713 5710 5708 5705 5701 5698 5695 5692 5688 5685 5682 5679 5677 5674 5672 5670 5668 5667 5665
5792 5787 5783 5780 5776 5772 5768 5765 5761 5757 5754 5751 5747 5744 5741 5738 5735 5731 5728 5724 5721 5717 5714 5710 5707 5704 5701 5698 5695 5692 5689 5685 5682 5679 5676 5674 5671 5668 5666 5663 5661 5660 5658
5788 5784 5780 5776 5773 5769 5765 5761 5758 5754 5750 5747 5743 5740 5737 5734 5730 5727 5723 5719 5716 5712 5708 5704 5701 5698 5695 5691 5688 5685 5682 5679 5676 5673 5670 5668 5665 5662 5660 5657 5655 5653 5652
5785 5782 5777 5773 5769 5766 5762 5758 5754 5751 5747 5744 5740 5736 5733 5729 5726 5722 5718 5714 5710 5706 5702 5698 5694 5691 5688 5684 5681 5678 5676 5673 5670 5667 5664 5662 5659 5656 5654 5651 5649 5647 5645
5782 5778 5774 5770 5766 5762 5758 5755 5751 5748 5744 5740 5737 5733 5729 5725 5721 5717 5713 5709 5705 5701 5697 5693 5689 5685 5681 5678 5675 5672 5669 5666 5664 5661 5659 5656 5654 5651 5649 5646 5644 5642 5640
5778 5774 5770 5766 5762 5759 5755 5752 5748 5745 5741 5737 5733 5729 5725 5721 5717 5714 5710 5705 5701 5697 5693 5688 5684 5680 5676 5672 5669 5666 5663 5660 5658 5655 5653 5651 5649 5646 5644 5641 5639 5637 5635
5774 5770 5766 5762 5759 5755 5752 5748 5745 5741 5737 5734 5730 5727 5722 5718 5714 5710 5706 5702 5698 5693 5689 5685 5681 5676 5672 5668 5665 5662 5658 5656 5653 5651 5648 5646 5644 5641 5639 5637 5634 5632 5630
5769 5766 5762 5758 5755 5751 5748 5745 5741 5738 5734 5731 5727 5723 5720 5716 5711 5707 5703 5699 5695 5691 5686 5682 5678 5674 5669 5665 5661 5658 5654 5652 5649 5646 5644 5642 5639 5637 5635 5633 5630 5628 5625
5765 5762 5758 5754 5751 5748 5744 5741 5738 5735 5731 5728 5724 5721 5717 5713 5709 5705 5700 5696 5692 5689 5684 5680 5676 5671 5667 5663 5659 5655 5652 5648 5645 5643 5640 5638 5636 5633 5631 5629 5627 5624 5621
5761 5757 5754 5751 5748 5744 5741 5738 5735 5731 5728 5725 5721 5718 5714 5710 5706 5702 5699 5695 5691 5687 5683 5678 5675 5670 5666 5662 5658 5654 5650 5647 5643 5640 5637 5635 5633 5630 5628 5626 5623 5620 5617
5756 5753 5750 5747 5744 5741 5738 5735 5731 5728 5725 5722 5718 5715 5712 5708 5704 5701 5697 5693 5689 5685 5681 5677 5673 5669 5665 5661 5657 5653 5649 5646 5642 5639 5635 5632 5630 5627 5624 5622 5619 5617 5614
5752 5749 5746 5744 5741 5738 5735 5731 5728 5725 5722 5719 5716 5712 5709 5706 5702 5699 5695 5692 5688 5684 5680 5676 5672 5668 5665 5661 5657 5653 5649 5645 5641 5637 5634 5631 5628 5625 5622 5619 5616 5613 5610
5747 5744 5742 5739 5737 5734 5731 5728 5725 5721 5718 5716 5713 5710 5707 5704 5700 5697 5694 5691 5687 5683 5680 5676 5672 5668 5664 5660 5657 5653 5648 5644 5640 5637 5633 5630 5626 5623 5620 5616 5613 5610 5607
Wind_Speed
15 16 17 18 19 20 19 19 19 20 21 23 24 25 25 25 24 24 24 24 24 25 25 25 26 26 26 26 27 28 28 27 27 26 26 26 25 25 26 26 26 25 26
16 17 17 18 19 20 19 20 19 21 22 23 24 25 25 25 25 24 24 25 25 25 25 25 26 26 27 27 28 28 27 26 26 26 26 25 25 25 26 26 26 26 26
15 16 18 18 19 19 20 21 20 21 23 24 24 24 25 25 25 25 25 25 25 26 27 26 26 27 27 27 27 26 26 25 25 26 26 25 24 25 26 26 27 27 26
16 18 19 19 20 20 21 21 21 21 21 22 22 23 24 24 24 25 25 25 26 26 26 26 26 26 26 26 25 25 24 24 25 26 26 26 25 25 25 26 26 27 26
17 18 19 20 21 21 22 21 21 21 21 21 22 24 24 23 24 24 25 25 25 25 25 25 25 25 24 24 24 24 24 23 24 25 25 26 26 27 27 26 26 27 27
18 18 19 20 21 21 21 21 22 22 22 22 23 23 23 23 23 24 23 24 24 25 24 24 23 23 23 23 22 22 22 22 24 24 25 26 26 27 28 27 27 27 27
18 18 19 20 20 20 21 21 22 22 23 23 23 23 23 23 23 23 22 23 23 23 23 22 22 23 23 22 22 22 21 21 23 24 25 25 26 26 26 26 26 26 26
19 18 19 19 20 20 21 20 22 23 23 23 23 23 23 23 23 22 22 22 22 23 22 22 21 21 21 22 22 22 23 24 24 25 25 26 25 25 24 23 24 24 24
19 19 19 18 20 20 21 22 22 22 22 22 23 23 22 22 21 21 22 22 22 22 22 22 21 21 21 21 22 23 24 25 25 25 25 25 25 24 24 23 22 23 24
20 19 19 20 20 21 22 23 22 22 22 22 22 21 21 21 21 21 22 22 22 22 21 21 21 21 21 21 22 23 23 24 24 24 24 24 23 23 22 22 22 22 23
20 20 21 21 21 22 23 23 23 22 22 21 21 21 20 20 21 22 22 21 21 21 20 20 21 21 21 21 22 22 23 24 24 23 23 23 22 22 22 22 22 24 24
21 21 21 21 21 22 22 22 22 22 21 21 20 20 20 21 21 21 20 20 20 21 20 21 21 21 21 22 22 23 23 23 23 23 23 22 21 21 22 22 22 23 24
22 22 21 21 21 22 23 22 22 21 20 20 19 19 20 20 20 20 20 20 20 21 21 21 21 21 22 22 22 22 23 23 23 22 22 21 21 21 21 22 22 23 23
22 22 21 20 21 21 21 20 20 19 19 19 19 19 19 19 20 20 20 21 21 21 22 21 22 22 21 22 22 22 22 22 22 22 21 20 20 20 20 21 21 22 23
22 22 21 21 21 21 21 20 20 19 20 19 19 19 19 19 20 21 21 21 21 21 22 22 22 22 22 23 22 22 21 22 21 21 20 20 20 19 19 20 20 21 21
22 21 21 21 21 21 20 20 20 20 19 19 19 19 19 20 20 21 22 22 22 22 22 23 23 23 23 23 22 22 21 21 21 20 20 20 20 20 20 19 20 20 20
21 21 21 20 21 20 20 20 20 20 19 19 19 19 20 20 21 22 22 22 21 21 22 23 23 23 22 22 21 21 20 20 20 20 19 19 19 19 19 18 19 19 19
21 21 21 20 20 19 19 20 20 20 20 20 20 20 20 21 21 21 21 20 20 21 21 21 22 21 21 21 21 20 20 19 19 19 18 18 18 18 17 17 17 17 17
21 21 21 21 20 19 20 20 20 20 21 20 20 20 20 20 20 20 20 20 20 21 21 21 20 20 20 20 19 18 18 18 17 17 17 17 17 17 16 16 15 16 16
21 21 21 21 20 20 20 20 20 20 19 19 19 19 20 20 20 20 20 20 20 20 19 20 20 19 19 18 17 17 17 16 15 16 16 16 15 15 15 14 14 14 15
21 21 21 21 20 20 20 19 19 18 18 18 19 19 19 20 20 19 19 19 18 18 19 19 19 19 18 18 17 17 16 16 15 15 15 14 14 14 13 14 14 14 14
21 21 20 20 19 19 19 18 19 18 18 18 18 18 19 19 19 19 19 18 17 18 18 19 19 18 18 18 17 17 16 15 15 14 14 13 13 12 12 13 13 14 14
21 20 20 19 18 18 18 19 19 19 18 18 18 18 18 18 18 18 17 17 17 17 18 18 18 18 17 18 18 17 16 16 15 15 14 13 12 12 13 13 13 14 14
20 20 19 18 18 18 18 19 19 18 17 17 17 17 18 17 17 16 16 16 17 17 18 17 17 17 18 17 17 16 16 16 16 15 14 14 13 13 14 14 14 14 14
19 19 19 19 19 19 18 18 17 16 16 16 16 16 16 16 15 15 15 16 17 17 17 17 16 17 17 17 17 17 16 16 16 15 15 14 14 14 14 14 15 15 15
20 20 20 19 19 18 17 17 17 16 16 16 15 15 16 15 14 13 14 15 15 16 16 16 16 17 17 17 17 17 17 17 17 16 16 16 16 15 15 15 15 15 14
Wind_Direction
308 308 308 308 304 303 299 297 298 300 297 297 299 298 298 296 298 296 296 297 297 297 297 296 294 292 291 293 294 293 290 285 282 280 278 276 275 274 274 271 269 267 265
312 311 311 311 308 305 301 301 300 299 298 298 298 298 298 298 297 298 297 297 297 297 297 296 295 294 293 293 293 292 290 288 284 280 278 277 277 275 274 271 268 267 265
310 312 314 313 309 307 305 306 304 300 299 299 299 299 298 297 296 296 297 296 295 296 295 295 295 295 295 294 293 292 290 287 283 282 280 278 276 276 275 273 270 268 265
310 311 314 313 311 312 311 309 306 303 302 301 302 303 300 298 297 296 296 298 298 297 296 296 296 297 298 297 294 293 292 288 284 283 281 279 278 276 274 272 269 268 266
310 312 317 317 315 312 312 310 309 307 305 304 303 303 302 299 298 297 299 300 300 299 300 297 296 295 296 297 295 295 295 291 287 285 282 280 280 280 278 274 270 267 266
312 314 316 316 314 312 311 309 308 308 306 306 305 304 302 301 300 300 301 301 301 301 300 296 296 296 297 298 298 299 297 292 289 287 284 282 280 282 280 275 271 267 266
314 315 317 314 314 311 309 309 309 309 307 306 305 305 304 304 304 302 303 303 303 302 300 297 296 297 298 299 298 297 298 295 293 290 287 285 283 282 279 275 271 267 265
315 312 314 314 315 313 313 313 312 311 309 309 308 306 305 304 305 304 304 305 305 303 302 298 298 298 299 299 298 298 299 296 294 290 287 286 284 282 278 275 271 266 264
319 313 313 314 314 314 314 314 315 313 311 311 309 307 307 307 308 307 307 307 307 306 303 300 301 300 300 301 299 299 299 299 297 293 289 286 284 281 277 273 270 267 266
319 319 316 315 315 313 312 312 312 311 310 308 308 308 308 308 309 309 308 308 307 307 305 304 302 302 301 302 302 301 301 300 299 296 294 291 288 283 280 277 273 272 269
321 319 318 315 313 313 312 312 313 312 310 309 309 308 309 309 309 310 310 311 310 310 307 306 306 305 303 303 305 306 304 302 301 299 297 294 291 285 281 280 277 274 272
323 321 318 316 315 315 315 314 315 315 313 313 312 312 312 312 310 310 311 313 314 312 310 307 306 305 304 305 306 307 307 305 303 300 299 295 291 288 284 282 279 275 272
322 321 320 318 318 319 320 319 318 318 317 317 315 314 314 314 315 315 314 314 312 312 311 309 307 306 304 305 306 307 308 307 305 302 297 293 292 290 287 283 281 277 274
323 323 323 323 324 324 323 322 319 318 319 319 317 316 315 316 317 316 316 316 314 313 311 309 307 307 307 307 306 305 305 305 304 303 301 298 295 292 290 287 284 281 277
328 328 327 325 324 325 324 324 323 322 321 321 320 320 319 319 319 320 319 317 316 315 313 310 307 306 306 306 307 306 305 304 304 303 302 302 299 297 294 291 289 285 280
327 327 325 324 323 323 323 324 324 324 323 323 322 322 321 322 322 322 321 319 318 318 316 312 308 306 306 306 307 306 304 303 302 303 302 301 302 299 297 294 291 287 283
324 323 323 323 323 323 322 322 322 323 323 323 323 323 323 322 323 323 323 322 320 318 318 316 313 310 308 307 307 307 305 303 304 305 304 304 306 302 300 296 293 291 287
323 322 321 322 323 323 323 323 324 324 323 323 324 323 324 325 325 326 327 328 326 323 322 320 319 317 315 312 309 309 307 306 305 305 304 306 308 307 305 302 299 296 291
321 320 321 321 322 321 322 323 323 323 324 325 326 327 327 328 328 329 329 329 328 327 327 327 327 327 324 320 315 311 311 310 308 307 308 308 308 307 305 306 302 300 295
320 319 320 321 320 319 319 321 322 324 325 326 327 329 330 330 330 330 330 331 331 332 333 335 337 336 334 331 327 322 318 315 311 310 310 309 310 311 311 311 307 305 304
319 320 319 318 317 318 320 321 323 324 325 327 328 330 332 332 333 334 334 335 337 339 341 341 342 342 342 340 338 334 327 325 321 318 315 311 309 313 316 315 313 309 309
318 319 318 317 318 318 319 321 322 324 324 326 328 330 333 335 338 339 339 340 342 344 346 347 347 347 347 347 346 344 339 336 332 327 322 318 315 317 318 318 316 312 311
316 317 317 318 319 320 319 321 321 322 323 325 327 329 332 335 338 340 341 343 346 346 347 348 349 350 350 350 348 349 347 344 343 338 332 326 323 322 321 319 317 315 311
314 315 316 318 318 319 319 322 322 321 322 324 327 328 331 334 337 341 344 345 346 347 348 349 350 352 352 352 351 352 351 349 348 347 343 336 331 327 325 323 321 319 315
311 312 314 314 315 316 317 319 321 321 320 322 324 327 330 333 335 339 343 345 348 349 350 353 354 354 355 354 353 354 353 351 351 349 349 347 342 336 333 330 328 326 322
308 309 311 312 314 315 316 318 320 319 319 320 323 326 330 333 334 338 341 345 347 351 354 355 355 355 355 355 354 354 355 353 353 350 348 347 344 342 339 335 332 329 325